"Pseudo-MPEC" for P20JGDg

Created 2018 Oct 15 11:18:05 UT using Find_Orb

Click here for an explanation of pseudo-MPECs

 
 Astrometry: 
     P20JGDg  C2018 10 10U^AstrometryT?MAsxxuZHdb3AUE`s;q#GvB,frou1$:8yg6U?25F52
     P20JGDg  C2018 10 10APQTLaSf4I77p44T,LO=PCVOdl**XtKc%Z5f3U6l8-Zc425=P?:`F52
     P20JGDg  C2018 10 10n%RS/e'4N,n=M\r'rd?YEyw322QRkJ.-Ys4H!uHRjO%UI8TH5A4HF52
     P20JGDg  C2018 10 10LPTrRTBaV4P$6%tT'MEW,TZDb\4)q60Gj(TxJ;nOE*e$%t,,s=lMF52
     P20JGDg  C2018 10 11wji3$L*:\,^d`75!+o**J/YDo?=21D/!gBZ9'Nv3g`sXON=EXHy\H01
     P20JGDg  C2018 10 111XZwwlbuUcbQwXLREredacted;98qhF4g%6f;!DB[usM]I\14xglH01
     P20JGDg  C2018 10 11$?8=20hTWA6m-QH+M*G1=Jn=[(o#Nsvfj.QXb.5)x\j)*uW4!Xr(H01
     P20JGDg  C2018 10 11nj=P_t$3qEWYv6B^%%\aJeEEvZ!T4s6(c.X#(\jy'GYW]U;4QW^qH01
     P20JGDg KC2018 10 12#^m7_K2lSveS)!C\)jo:(JVD9-Vw$Y5Lpt(A-tN]u9jX:3:wW08_L01
     P20JGDg KC2018 10 124H^MUn%4M::wiBPpFgk_WISj+!(C;kSDseeGIht=\q`$i6u5#@N4L01
     P20JGDg KC2018 10 12D[XfZDcu`.N*/u-QI%4telcVAR3bH`aZ(:Fki`qEcFRno1(iQO,aH21
     P20JGDg KC2018 10 12p^t2vrWNbKtS;5-fZJ3f?\x!OP26!Kd3ia`Irh1w=?8RLY2wlxp(H21
     P20JGDg KC2018 10 15vq.%uo#FZjiu*9Gs$D6C7hppGR=DOhS.j($G(88q3vd4oiX_2oM\291
     P20JGDg KC2018 10 15?'][ZTcC3K3oO[wAMH.I3B?VUXBJ,YDg%!q_:Lj'usr;iu#m.Ff!291
     P20JGDg KC2018 10 15D`%PsIr6)MaBlUI6\D/S=$Bl(5(!r)F2bP,fBoP]kv8:2N_NEOCP291

Station data:
(291) LPL/Spacewatch II  (N31.961669 W111.599905)  US/Arizona.  Observers J.
   V. Scotti, R. S. McMillan. 1.8-m f/2.7 reflector + CCD.
(F52) Pan-STARRS 2, Haleakala  (N20.707384 W156.255910)  US/Hawaii.
(H01) Magdalena Ridge Observatory, Socorro  (N33.984833 W107.189333)  US/New
   Mexico.  Observers W. H. Ryan, E. V. Ryan. Measurer W. H. Ryan. 2.4-m
   f/8.9 reflector + CCD.
(H21) Astronomical Research Observatory, Westfield  (N39.483057 W87.968270)
   US/Illinois. 0.76-m f/3.0 astrograph + CCD.
(L01) Višnjan Observatory, Tičan  (N45.290900 E13.749300)  Croatia.  Observer
   K. Korlević. 1.0-m f/2.9 reflector + CCD.

Orbital elements:  P20JGDg
   Perihelion 2018 Jun 27.197691 +/- 2.38 TT =  4:44:40 (JD 2458296.697691)
Epoch 2018 Oct 15.0 TT = JDT 2458406.5   Earth MOID: 0.1925   Ma: 0.0132
M  33.85428 +/- 1.0                 (J2000 ecliptic)          AutoNEOCP
n   0.30832037 +/- 0.00322          Peri.  200.81147 +/- 0.18
a   2.17004077 +/- 0.0151           Node   111.42366 +/- 0.9
e   0.4438888 +/- 0.00564           Incl.    1.79347 +/- 0.026
P   3.20                   H 20.8   G  0.15   U  8.9  
q 1.20678378 +/- 0.00426    Q 3.13329776 +/- 0.0341
From 15 observations 2018 Oct. 10-15; mean residual 0".16
Residuals in arcseconds: 
181010 F52  .08-  .04+    181011 H01  .09+  .02+    181012 H21  .22-  .34+    
181010 F52  .00   .10-    181011 H01  .03-  .03-    181012 H21  .08+  .43+    
181010 F52  .03-  .00     181011 H01  .01-  .07-    181015 291  .15-  .07+    
181010 F52  .08+  .11+    181012 L01  .13+  .31-    181015 291  .04-  .06-    
181011 H01  .05+  .04-    181012 L01  .06-  .33-    181015 291  .21+  .09-    

Ephemerides (geocentric):
Date (UTC) HH   RA              Dec         delta   r     elong  mag " sig PA
---- -- -- --  -------------   -----------  ------ ------ -----  --- ---- ---
2018 10 15 11  03 05 05.376   +12 53 36.70  .65792 1.6144 154.0 21.8  .18 148
2018 10 15 12  03 05 02.230   +12 53 24.32  .65801 1.6146 154.0 21.8  .19 150
2018 10 15 13  03 04 59.082   +12 53 11.92  .65809 1.6148 154.1 21.8  .19 151
2018 10 15 14  03 04 55.932   +12 52 59.52  .65818 1.6151 154.1 21.8  .20 153
2018 10 15 15  03 04 52.778   +12 52 47.12  .65827 1.6153 154.2 21.8  .20 154
2018 10 15 16  03 04 49.622   +12 52 34.71  .65835 1.6156 154.2 21.8  .21 156
2018 10 15 17  03 04 46.463   +12 52 22.29  .65844 1.6158 154.3 21.8  .21 157
2018 10 15 18  03 04 43.301   +12 52 09.87  .65852 1.6160 154.3 21.8  .22 159
2018 10 15 19  03 04 40.137   +12 51 57.45  .65861 1.6163 154.4 21.8  .22 160
2018 10 15 20  03 04 36.970   +12 51 45.01  .65870 1.6165 154.4 21.8  .23 161
2018 10 15 21  03 04 33.801   +12 51 32.58  .65879 1.6167 154.5 21.8  .24 163
2018 10 15 22  03 04 30.629   +12 51 20.13  .65888 1.6170 154.6 21.8  .24 164
2018 10 15 23  03 04 27.454   +12 51 07.69  .65896 1.6172 154.6 21.8  .25 165
2018 10 16 00  03 04 24.276   +12 50 55.23  .65905 1.6174 154.7 21.8  .26 167
2018 10 16 01  03 04 21.096   +12 50 42.78  .65914 1.6177 154.7 21.8  .26 168
2018 10 16 02  03 04 17.913   +12 50 30.31  .65923 1.6179 154.8 21.8  .27 169
2018 10 16 03  03 04 14.728   +12 50 17.84  .65932 1.6182 154.8 21.8  .28 170
2018 10 16 04  03 04 11.540   +12 50 05.37  .65941 1.6184 154.9 21.8  .29 171
2018 10 16 05  03 04 08.350   +12 49 52.89  .65950 1.6186 154.9 21.8  .29 173
2018 10 16 06  03 04 05.157   +12 49 40.41  .65959 1.6189 155.0 21.8  .30 174
2018 10 16 07  03 04 01.962   +12 49 27.92  .65968 1.6191 155.0 21.8  .31 175
2018 10 16 08  03 03 58.763   +12 49 15.43  .65977 1.6193 155.1 21.8  .32 176
2018 10 16 09  03 03 55.563   +12 49 02.93  .65986 1.6196 155.1 21.8  .33 177
2018 10 16 10  03 03 52.360   +12 48 50.43  .65996 1.6198 155.2 21.8  .34 178
2018 10 16 11  03 03 49.154   +12 48 37.92  .66005 1.6201 155.3 21.8  .35 179
2018 10 16 12  03 03 45.946   +12 48 25.41  .66014 1.6203 155.3 21.8  .36   0
2018 10 16 13  03 03 42.736   +12 48 12.89  .66023 1.6205 155.4 21.8  .37   1
2018 10 16 14  03 03 39.523   +12 48 00.37  .66033 1.6208 155.4 21.8  .38   2
2018 10 16 15  03 03 36.307   +12 47 47.84  .66042 1.6210 155.5 21.8  .39   3
2018 10 16 16  03 03 33.089   +12 47 35.31  .66051 1.6212 155.5 21.8  .40   4
2018 10 16 17  03 03 29.869   +12 47 22.77  .66061 1.6215 155.6 21.8  .41   4
2018 10 16 18  03 03 26.646   +12 47 10.23  .66070 1.6217 155.6 21.8  .42   5
2018 10 16 19  03 03 23.421   +12 46 57.69  .66080 1.6220 155.7 21.8  .43   6
2018 10 16 20  03 03 20.193   +12 46 45.14  .66089 1.6222 155.7 21.8  .44   7
2018 10 16 21  03 03 16.963   +12 46 32.59  .66099 1.6224 155.8 21.8  .45   8
2018 10 16 22  03 03 13.731   +12 46 20.03  .66108 1.6227 155.8 21.8  .47   9
2018 10 16 23  03 03 10.496   +12 46 07.47  .66118 1.6229 155.9 21.8  .48   9
2018 10 17 00  03 03 07.259   +12 45 54.90  .66128 1.6232 156.0 21.8  .49  10
2018 10 17 01  03 03 04.020   +12 45 42.33  .66137 1.6234 156.0 21.8  .50  11
2018 10 17 02  03 03 00.778   +12 45 29.76  .66147 1.6236 156.1 21.8  .52  11
2018 10 17 03  03 02 57.534   +12 45 17.18  .66157 1.6239 156.1 21.8  .53  12
2018 10 17 04  03 02 54.287   +12 45 04.60  .66166 1.6241 156.2 21.8  .54  13
2018 10 17 05  03 02 51.039   +12 44 52.01  .66176 1.6243 156.2 21.8  .56  14
2018 10 17 06  03 02 47.788   +12 44 39.42  .66186 1.6246 156.3 21.8  .57  14
2018 10 17 07  03 02 44.534   +12 44 26.82  .66196 1.6248 156.3 21.8  .59  15
2018 10 17 08  03 02 41.279   +12 44 14.22  .66206 1.6251 156.4 21.8  .60  15
2018 10 17 09  03 02 38.021   +12 44 01.62  .66216 1.6253 156.4 21.8  .62  16
2018 10 17 10  03 02 34.761   +12 43 49.02  .66226 1.6255 156.5 21.8  .63  17